This is the latest recevied weather packets stored in our database for station/object KD9IXX-13. If no packets are shown the sender has not sent any weather packets the latest 10 day(s).
| Time | Temp. | Humidity | Pressure | Rain* | Wind** | Luminosity | Snow |
|---|---|---|---|---|---|---|---|
| 1787796902 | 21.11° C | 89% | 1014.7 hPa | 0 mm | - | 0 W/m² | - |
| 1787796601 | 21.11° C | 88% | 1014.8 hPa | 0 mm | - | 0 W/m² | - |
| 1787796302 | 21.67° C | 87% | 1014.8 hPa | 0 mm | - | 0 W/m² | - |
| 1787796002 | 21.67° C | 86% | 1014.7 hPa | 0 mm | - | 0 W/m² | - |
| 1787795702 | 21.67° C | 86% | 1014.7 hPa | 0 mm | - | 0 W/m² | - |
| 1787795402 | 21.67° C | 85% | 1014.8 hPa | 0 mm | - | 0 W/m² | - |
| 1787794501 | 22.78° C | 82% | 1014.7 hPa | 0 mm | - | 0 W/m² | - |
| 1787793902 | 23.33° C | 80% | 1014.3 hPa | 0 mm | - | 0 W/m² | - |
| 1787793302 | 23.33° C | 79% | 1014.1 hPa | 0 mm | - | 0 W/m² | - |
| 1787792702 | 23.89° C | 78% | 1014.1 hPa | 0 mm | - | 0 W/m² | - |
| 1787792102 | 23.89° C | 77% | 1014 hPa | 0 mm | - | 0 W/m² | - |
| 1787791502 | 24.44° C | 76% | 1013.8 hPa | 0 mm | - | 0 W/m² | - |
| 1787791203 | 24.44° C | 75% | 1013.9 hPa | 0 mm | - | 0 W/m² | - |
| 1787790902 | 24.44° C | 75% | 1014 hPa | 0 mm | - | 1 W/m² | - |
| 1787790302 | 25° C | 73% | 1013.7 hPa | 0 mm | - | 7 W/m² | - |
| 1787789102 | 25.56° C | 71% | 1013.6 hPa | 0 mm | - | 18 W/m² | - |
| 1787787902 | 26.11° C | 70% | 1013.6 hPa | 0 mm | - | 36 W/m² | - |
| 1787787302 | 26.67° C | 68% | 1013.8 hPa | 0 mm | - | 48 W/m² | - |
| 1787786701 | 26.67° C | 68% | 1013.6 hPa | 0 mm | - | 55 W/m² | - |
| 1787786102 | 26.67° C | 67% | 1013.7 hPa | 0 mm | - | 66 W/m² | - |
| 1787785802 | 27.22° C | 66% | 1013.6 hPa | 0 mm | - | 72 W/m² | - |
| 1787785502 | 27.22° C | 66% | 1013.7 hPa | 0 mm | - | 94 W/m² | - |
| 1787784902 | 27.22° C | 65% | 1013.6 hPa | 0 mm | - | 112 W/m² | - |
| 1787784002 | 27.78° C | 63% | 1013.7 hPa | 0 mm | - | 166 W/m² | - |
| 1787783702 | 27.78° C | 63% | 1013.5 hPa | 0 mm | - | 193 W/m² | - |
* Rain latest hour (hover to see other rain measurements)
** Current wind speed in m/s (hover to see current wind gust speed)